Home   Weather   Joensuu   Past weeks

Flag for Finland Past Weather in Joensuu, Finland — Yesterday and Last 2 Weeks

Now
52 °F

Overcast.


Feels Like: 47 °F
Forecast: 49 / 53 °F
Wind: 13 mph from Southeast

Location: Joensuu Airport

Current Time: Sep 28, 2016 at 1:24:17 PM

Latest Report: Sep 28, 2016 at 12:50 PM


Visibility: N/A

Pressure: 29.92 "Hg

Humidity: 88%

Dew Point: 48 °F

Location of JoensuuLocation

Past Weather in Joensuu — Graph

°F

Joensuu Temperature Yesterday

Maximum temperature yesterday: 54 °F (at 12:20 AM)
Minimum temperature yesterday: 52 °F (at 10:20 AM)
Average temperature yesterday: 53 °F

High & Low Weather Summary for the Past Weeks

 TemperatureHumidityPressure
High59 °F (Sep 13, 2:20 PM)100% (Sep 14, 2:20 AM)30.33 "Hg (Sep 14, 2:20 AM)
Low36 °F (Sep 19, 12:20 AM)39% (Sep 13, 2:50 PM)29.77 "Hg (Sep 23, 9:20 PM)
Average49 °F84%30.12 "Hg
* Reported Sep 13 12:20 PM — Sep 28 12:20 PM, Joensuu, Weather by CustomWeather, © 2016

Note: Actual official high and low records may vary slightly from our data, if they occured in-between our weather recording intervals... More about our weather records

Advertising

Joensuu Weather History for the Previous 24 Hours

Scroll right to see more
 ConditionsComfort  
Time TempWeatherWind HumidityBarometerVisibility
12:20 PM
Wed, Sep 28
52 °FOvercast.14 mph88%29.95 "HgN/A
11:50 AM52 °FOvercast.13 mph88%29.95 "HgN/A
11:20 AM52 °FOvercast.10 mph88%29.98 "HgN/A
10:50 AM52 °FOvercast.10 mph88%29.98 "HgN/A
10:20 AM52 °FOvercast.12 mph88%29.98 "HgN/A
9:50 AM52 °FLow clouds.12 mph88%30.01 "HgN/A
9:20 AM50 °FLow clouds.10 mph94%30.01 "HgN/A
8:50 AM50 °FLow clouds.9 mph94%30.01 "HgN/A
8:20 AM50 °FLow clouds.12 mph94%30.04 "HgN/A
7:50 AM52 °FLow clouds.10 mph94%30.04 "HgN/A
7:20 AM52 °FLow clouds.10 mph94%30.07 "HgN/A
6:50 AM52 °FLow clouds.9 mph94%30.07 "HgN/A
6:20 AM52 °FLow clouds.9 mph94%30.09 "HgN/A
5:50 AM52 °FLow clouds.8 mph94%30.09 "HgN/A
5:20 AM52 °FLow clouds.7 mph94%30.12 "HgN/A
4:50 AM52 °FLow clouds.7 mph94%30.12 "HgN/A
4:20 AM52 °FLow clouds.8 mph94%30.12 "HgN/A
3:50 AM52 °FLow clouds.8 mph94%30.15 "HgN/A
3:20 AM52 °FLow clouds.8 mph94%30.15 "HgN/A
2:50 AM52 °FLow clouds.8 mph94%30.15 "HgN/A
2:20 AM52 °FLow clouds.8 mph94%30.18 "HgN/A
1:50 AM52 °FLow clouds.8 mph94%30.18 "HgN/A
1:20 AM52 °FLow clouds.8 mph100%30.18 "HgN/A
12:50 AM52 °FLow clouds.7 mph100%30.21 "HgN/A
12:20 AM52 °FLow clouds.6 mph100%30.21 "HgN/A
11:50 PM
Tue, Sep 27
52 °FLow clouds.6 mph100%30.24 "HgN/A
11:20 PM52 °FLow clouds.7 mph100%30.24 "HgN/A
10:50 PM52 °FLow clouds.7 mph100%30.24 "HgN/A
10:20 PM52 °FLow clouds.8 mph100%30.24 "HgN/A
9:50 PM52 °FLow clouds.8 mph100%30.24 "HgN/A
9:20 PM54 °FLow clouds.8 mph94%30.27 "HgN/A
8:50 PM54 °FLow clouds.8 mph94%30.27 "HgN/A
8:20 PM54 °FLow clouds.8 mph94%30.27 "HgN/A
7:50 PM54 °FLow clouds.7 mph94%30.27 "HgN/A
7:20 PM54 °FLow clouds.7 mph94%30.27 "HgN/A
6:50 PM54 °FLow clouds.6 mph94%30.27 "HgN/A
6:20 PM54 °FLow clouds.6 mph100%30.27 "HgN/A
5:50 PM54 °FLow clouds.5 mph100%30.27 "HgN/A
5:20 PM54 °FLow clouds.6 mph100%30.30 "HgN/A
4:50 PM54 °FLow clouds.6 mph100%30.30 "HgN/A
4:20 PM54 °FLow clouds.5 mph100%30.30 "HgN/A
3:50 PM54 °FLow clouds.5 mph100%30.30 "Hg5 mi
3:20 PM54 °FLow clouds.5 mph100%30.30 "Hg3 mi
2:50 PM54 °FFog.5 mph100%30.30 "Hg2 mi
2:20 PM54 °FFog.5 mph100%30.33 "Hg2 mi
1:50 PM54 °FFog.6 mph100%30.30 "Hg1 mi
1:20 PM54 °FFog.6 mph100%30.30 "Hg1 mi
Weather by CustomWeather, © 2016

See weather overviewHow to use our weather pages